Location: Barrio de Canyet
(41.4665°N, 2.2381°E)
Time: 09:20:11
(UTC+00:00)

Terra - Pass Details

Date: 09 April 2020
Orbit: 701 x 703 km, 98.2° (Epoch: 03 June)

Event Time Altitude Azimuth Distance (km) Brightness Sun altitude
Exits shadow 20:29:28 14° 50° (NE) 1,913 3.9 -22.2°
Drops below altitude 10° 20:31:12 10° 29° (NNE) 2,179 4.4 -22.5°
Sets 20:34:24 0° 6° (N) 3,103 5.5 -22.9°
